Weather History for ESPA - January, 2014

Change the Weather History Date:

Monday, January 20, 2014

  Actual Average Record
Temperature  
Mean Temperature -7 °F -  
Max Temperature 10 °F - - ()
Min Temperature -24 °F - - ()
Degree Days  
Heating Degree Days 72    
Moisture  
Dew Point -11 °F    
Average Humidity 81    
Maximum Humidity 92    
Minimum Humidity 61    
Precipitation  
Precipitation 0.00 in - - ()
Sea Level Pressure  
Sea Level Pressure 30.45 in    
Wind  
Wind Speed 1 mph ()    
Max Wind Speed 6 mph    
Max Gust Speed -    
Visibility 7.0 miles    
Events Rain , Snow    
T = Trace of Precipitation, MM = Missing Value Source: Averaged Metar Reports

Daily Weather History Graph

Daily Weather History Graph

Search for Another Location

Airport or City:

Trip Planner

Search our weather history database for the weather conditions in past years. The results will help you decide how hot, cold, wet, or windy it might be!

Date:

Astronomy

Jan. 20, 2014 Rise Set
Actual Time 9:03 AM CET 2:22 PM CET
Civil Twilight 7:52 AM CET 3:33 PM CET
Nautical Twilight 6:45 AM CET 4:40 PM CET
Astronomical Twilight 5:45 AM CET 5:40 PM CET
Moon 8:51 PM CET (1/20) 8:52 AM CET (1/20)
Length of Visible Light 7h 41m
Length of Day
5h 19m
Waning Gibbous, 84% of the Moon is Illuminated
Jan 20
Waning Gibbous
Jan 24
Last Quarter
Jan 30
New
Feb 6
First Quarter
Feb 15
Full

Hourly Weather History & Observations

Time (CET) Temp. Windchill Dew Point Humidity Pressure Visibility Wind Dir Wind Speed Gust Speed Precip Events Conditions
12:00 AM -24 °F - -30 °F 61% 30.58 in 28 mi Calm Calm - -  
12:20 AM -23.8 °F - -29.2 °F 76% 30.57 in 6.2 mi NW 2.3 mph - N/A   Unknown
12:50 AM -23.8 °F - -29.2 °F 76% 30.57 in 6.2 mi NW 2.3 mph - N/A   Unknown
1:00 AM -24 °F - -30 °F 61% 30.58 in 31 mi NNW 2.2 mph - -  
1:20 AM -23.8 °F - -29.2 °F 76% 30.54 in 6.2 mi Calm Calm - N/A   Unknown
1:50 AM -23.8 °F - -29.2 °F 76% 30.54 in 6.2 mi Calm Calm - N/A   Unknown
2:00 AM -24 °F - -29 °F 62% 30.57 in 28 mi Calm Calm - -  
2:20 AM -23.8 °F - -29.2 °F 76% 30.54 in 6.2 mi NNW 2.3 mph - N/A   Unknown
2:50 AM -23.8 °F - -29.2 °F 76% 30.54 in 6.2 mi NW 1.2 mph - N/A   Unknown
3:00 AM -23 °F - -28 °F 63% 30.56 in 12 mi NW 2.2 mph - -  
3:20 AM -22.0 °F - -27.4 °F 76% 30.54 in 6.2 mi Calm Calm - N/A   Unknown
3:50 AM -23.8 °F - -29.2 °F 76% 30.51 in 6.2 mi Calm Calm - N/A   Unknown
4:00 AM -23 °F - -29 °F 61% 30.54 in 28 mi Calm Calm - -  
4:20 AM -22.0 °F - -27.4 °F 76% 30.51 in 6.2 mi NW 2.3 mph - N/A   Unknown
4:50 AM -22.0 °F - -29.2 °F 69% 30.51 in 6.2 mi WNW 1.2 mph - N/A   Unknown
5:00 AM -23 °F - -28 °F 62% 30.53 in 28 mi NW 2.2 mph - -  
5:20 AM -22.0 °F - -27.4 °F 76% 30.51 in 6.2 mi Calm Calm - N/A   Unknown
5:50 AM -22.0 °F - -27.4 °F 76% 30.48 in - Calm Calm - N/A   Clear
6:00 AM -22 °F - -28 °F 62% 30.51 in 47 mi Calm Calm - -  
6:20 AM -22.0 °F - -25.6 °F 83% 30.48 in - SSE 1.2 mph - N/A   Clear
6:50 AM -20.2 °F - -25.6 °F 76% 30.48 in 6.2 mi SSE 2.3 mph - N/A   Partly Cloudy
7:00 AM -21 °F - -26 °F 66% 30.50 in 47 mi South 2.2 mph - -  
7:20 AM -14.8 °F - -20.2 °F 77% 30.48 in 6.2 mi Calm Calm - N/A   Mostly Cloudy
7:50 AM -14.8 °F - -18.4 °F 84% 30.45 in 6.2 mi SE 2.3 mph - N/A Snow Light Snow
8:00 AM -14 °F - -19 °F 69% 30.48 in 25 mi SSE 2.2 mph - - Snow Light Snow
8:20 AM -11.2 °F - -16.6 °F 77% 30.45 in 6.2 mi Calm Calm - N/A   Scattered Clouds
8:50 AM -11.2 °F - -14.8 °F 84% 30.45 in 6.2 mi Calm Calm - N/A Snow Light Snow
9:00 AM -10 °F - -14 °F 75% 30.47 in 22 mi Calm Calm - - Snow Light Snow
9:20 AM -7.6 °F - -11.2 °F 84% 30.45 in 6.2 mi Calm Calm - N/A   Scattered Clouds
9:50 AM -2.2 °F -12.5 °F -4.0 °F 92% 30.45 in 6.2 mi SW 4.6 mph - N/A Snow Light Snow
10:00 AM -0 °F - -3 °F 81% 30.46 in 37 mi SW 4.5 mph - - Snow Light Snow
10:20 AM 3.2 °F -7.8 °F -0.4 °F 85% 30.45 in 6.2 mi SSW 5.8 mph - N/A   Scattered Clouds
10:50 AM 5.0 °F -2.1 °F 3.2 °F 92% 30.45 in 6.2 mi WSW 3.5 mph - N/A   Mostly Cloudy
11:00 AM 6 °F - 3 °F 83% 30.45 in 34 mi SW 2.2 mph - - Snow Light Snow
11:20 AM 5.0 °F - 3.2 °F 92% 30.42 in 6.2 mi WSW 2.3 mph - N/A   Mostly Cloudy
11:50 AM 5.0 °F - 3.2 °F 92% 30.42 in 6.2 mi Variable 1.2 mph - N/A   Mostly Cloudy
12:00 PM 6 °F - 4 °F 84% 30.44 in 31 mi Calm Calm - -   Partly Cloudy
12:20 PM 5.0 °F - 3.2 °F 92% 30.42 in 6.2 mi SSW 2.3 mph - N/A   Mostly Cloudy
12:50 PM 6.8 °F - 5.0 °F 92% 30.42 in 6.2 mi Variable 1.2 mph - N/A   Mostly Cloudy
1:00 PM 7 °F - 5 °F 86% 30.43 in 37 mi Calm Calm - -   Partly Cloudy
1:20 PM 8.6 °F - 6.8 °F 92% 30.39 in 6.2 mi SW 1.2 mph - N/A   Mostly Cloudy
1:50 PM 10.4 °F - 8.6 °F 92% 30.39 in 6.2 mi South 2.3 mph - N/A   Scattered Clouds
2:00 PM 10 °F - 8 °F 86% 30.41 in 37 mi SSW 2.2 mph - -   Partly Cloudy
2:20 PM 6.8 °F - 3.2 °F 85% 30.39 in 6.2 mi Variable 2.3 mph - N/A   Scattered Clouds
2:50 PM 6.8 °F - 5.0 °F 92% 30.39 in 6.2 mi SW 2.3 mph - N/A   Mostly Cloudy
3:00 PM 6 °F - 4 °F 84% 30.41 in 37 mi SW 2.2 mph - -   Mostly Cloudy
3:20 PM 6.8 °F - 3.2 °F 85% 30.39 in 6.2 mi WSW 1.2 mph - N/A   Mostly Cloudy
3:50 PM 3.2 °F - 1.4 °F 92% 30.39 in 6.2 mi Variable 1.2 mph - N/A   Mostly Cloudy
4:00 PM 3 °F - 0 °F 82% 30.41 in 37 mi Calm Calm - -   Mostly Cloudy
4:20 PM 1.4 °F -6.2 °F -0.4 °F 92% 30.39 in 6.2 mi NW 3.5 mph - N/A   Mostly Cloudy
4:50 PM -0.4 °F - -4.0 °F 85% 30.39 in 6.2 mi North 2.3 mph - N/A   Mostly Cloudy
5:00 PM -1 °F - -5 °F 77% 30.40 in 22 mi North 2.2 mph - -   Clear
5:20 PM -0.4 °F - -4.0 °F 85% 30.39 in 6.2 mi Variable 1.2 mph - N/A   Mostly Cloudy
5:50 PM -0.4 °F - -4.0 °F 85% 30.36 in 6.2 mi Variable 1.2 mph - N/A   Overcast
6:00 PM -1 °F - -4 °F 82% 30.40 in 18 mi Calm Calm - -   Clear
6:20 PM -0.4 °F - -4.0 °F 85% 30.36 in 6.2 mi Variable 2.3 mph - N/A   Overcast
6:50 PM -0.4 °F - -4.0 °F 85% 30.36 in 6.2 mi Variable 2.3 mph - N/A   Overcast
7:00 PM -1 °F - -4 °F 81% 30.39 in 14 mi North 2.2 mph - -   Clear
7:20 PM -2.2 °F - -4.0 °F 92% 30.36 in 6.2 mi Variable 2.3 mph - N/A   Overcast
7:50 PM -0.4 °F - -4.0 °F 85% 30.39 in 6.2 mi North 2.3 mph - N/A Snow Light Snow
8:00 PM -1 °F - -4 °F 82% 30.40 in 12 mi NNW 2.2 mph - - Rain Light Freezing Rain
8:20 PM -0.4 °F - -4.0 °F 85% 30.39 in 6.2 mi NNW 2.3 mph - N/A Snow Light Snow
8:50 PM -0.4 °F - -4.0 °F 85% 30.39 in 6.2 mi Variable 2.3 mph - N/A Snow Light Snow
9:00 PM -1 °F - -4 °F 81% 30.40 in 9 mi NNW 2.2 mph - - Rain Light Freezing Rain
9:20 PM -0.4 °F - -4.0 °F 85% 30.39 in 6.2 mi Variable 2.3 mph - N/A Snow Light Snow
9:50 PM -2.2 °F -10.4 °F -4.0 °F 92% 30.39 in 6.2 mi NNW 3.5 mph - N/A Snow Light Snow
10:00 PM -2 °F - -5 °F 81% 30.40 in 22 mi North 2.2 mph - - Snow Light Snow Showers
10:20 PM -2.2 °F -12.5 °F -5.8 °F 85% 30.39 in 6.2 mi North 4.6 mph - N/A Snow Light Snow
10:50 PM -4.0 °F -14.6 °F -7.6 °F 85% 30.39 in 6.2 mi North 4.6 mph - N/A Snow Light Snow
11:00 PM -5 °F - -9 °F 75% 30.41 in 14 mi NNW 4.5 mph - - Snow Light Snow Showers
11:20 PM -5.8 °F -18.4 °F -9.4 °F 84% 30.39 in 6.2 mi NW 5.8 mph - N/A Snow Light Snow
11:50 PM -7.6 °F -18.8 °F -11.2 °F 84% 30.39 in 6.2 mi NNW 4.6 mph - N/A   Partly Cloudy